Location: ????????
(60.4333°N, 46.4710°E)
Time: 04:39:41
(UTC+00:00)

SeaSat 1 - Pass Details

Date: 25 November 2020
Orbit: 745 x 747 km, 108.0° (Epoch: 19 January)

Event Time Altitude Azimuth Distance (km) Brightness Sun altitude
Exits shadow 16:57:21 26° 330° (NNW) 1,456 4.3 -34.6°
Drops below altitude 10° 16:59:29 10° 323° (NW) 2,276 5.5 -34.9°
Sets 17:01:46 0° 321° (NW) 3,203 6.5 -35.2°
